Location: Claremont
(33.9858°S, 18.4575°E)
Time: 12:09:50
(UTC+00:00)

Cosmos 1515 - Pass Details

Date: 03 March 2021
Orbit: 504 x 515 km, 82.5° (Epoch: 09 April)

Event Time Altitude Azimuth Distance (km) Brightness Sun altitude
Rises 18:16:11 0° 358° (N) 2,603 7.1 -12.2°
Reaches altitude 10° 18:18:18 10° 359° (N) 1,725 6.2 -12.7°
Maximum altitude 18:22:04 77° 84° (E) 531 3.5 -13.4°
Drops below altitude 10° 18:25:54 10° 170° (S) 1,748 6.5 -14.2°
Sets 18:28:03 0° 171° (S) 2,641 7.4 -14.6°
